Location: Turtle Rock Observatory
(36.6913°N, 81.9708°W)
Time: 12:25:45
(UTC-04:00)

TITAN 4B R/B - Visible Passes

Search period start: 30 May 2015 00:00
Search period end: 09 June 2015 00:00
Orbit: 464 x 652 km, 57.0° (Epoch: 28 May)

Date Brightness Start Highest point End Pass type
(mag) Time Alt. Az. Time Alt. Az. Time Alt. Az.
30 May 4.4 00:04:44 10° NW 00:06:01 11° NNW 00:07:11 10° NNW visible
30 May 4.3 05:06:54 10° N 05:09:28 17° NE 05:12:11 10° E visible
30 May 1.6 22:19:59 10° SW 22:23:36 58° NW 22:27:11 10° NNE visible
31 May 3.9 05:03:58 10° NNW 05:07:02 23° NE 05:10:17 10° E visible
31 May 2.6 22:17:38 10° WSW 22:21:05 38° NW 22:24:29 10° NNE visible
01 Jun 3.2 05:01:09 10° NNW 05:04:35 32° NE 05:08:12 10° ESE visible
01 Jun 3.4 22:15:27 10° W 22:18:36 26° NW 22:21:41 10° NNE visible
02 Jun 2.4 04:58:24 10° NNW 05:02:04 46° NE 05:05:56 10° ESE visible
02 Jun 4.1 22:13:27 10° W 22:16:09 19° NW 22:18:47 10° N visible
03 Jun 4.8 03:19:03 10° NNE 03:19:33 10° NNE 03:20:11 10° NE visible
03 Jun 1.5 04:55:44 10° NW 04:59:31 69° NE 05:03:32 10° SE visible
03 Jun 4.4 22:11:41 10° WNW 22:13:45 14° NW 22:15:43 10° N visible
04 Jun 4.5 03:15:18 10° N 03:17:12 14° NNE 03:19:14 10° ENE visible
04 Jun 1.0 04:53:08 10° NW 04:56:56 77° SW 05:00:57 10° SE visible
04 Jun 4.7 22:10:30 10° NW 22:11:23 11° NNW 22:12:09 10° NNW visible
05 Jun 4.0 03:12:11 10° N 03:14:47 18° NE 03:17:33 10° E visible
05 Jun 1.3 04:50:38 10° NW 04:54:20 49° SW 04:58:13 10° SSE visible
06 Jun 3.4 03:09:15 10° NNW 03:12:21 24° NE 03:15:36 10° E visible
06 Jun 1.9 04:48:16 10° WNW 04:51:42 32° SW 04:55:17 10° S visible
07 Jun 2.7 03:06:25 10° NNW 03:09:51 34° NE 03:12:02 19° E visible
07 Jun 2.8 04:46:05 10° WNW 04:47:33 17° W 04:47:33 17° W visible
08 Jun 2.3 03:03:41 10° NNW 03:06:25 40° N 03:06:25 40° N visible
